CST,Max TemperatureF,Mean TemperatureF,Min TemperatureF,Max Dew PointF,MeanDew PointF,Min DewpointF,Max Humidity, Mean Humidity, Min Humidity, Max Sea Level PressureIn, Mean Sea Level PressureIn, Min Sea Level PressureIn, Max VisibilityMiles, Mean VisibilityMiles, Min VisibilityMiles, Max Wind SpeedMPH, Mean Wind SpeedMPH, Max Gust SpeedMPH,PrecipitationIn, CloudCover, Events, WindDirDegrees
2013-2-1,41,33,24,30,14,6,75,51,27,30.51,30.41,30.25,10,10,10,23,5,31,0.00,1,,338
2013-2-2,46,36,25,37,29,16,92,72,51,30.35,30.22,30.14,10,7,0,10,4,13,0.03,3,Fog-Rain,207
2013-2-3,57,43,29,34,29,24,92,61,30,30.18,30.15,30.10,10,6,0,23,8,31,0.00,0,Fog,305
2013-2-4,56,44,32,34,30,27,82,59,35,30.13,30.04,29.95,10,10,10,12,4,14,T,4,Rain,176
2013-2-5,67,54,40,44,40,36,89,62,34,30.08,30.00,29.96,10,10,10,10,1,14,0.01,3,Rain,287
2013-2-6,65,50,34,40,35,32,96,63,30,30.22,30.15,30.08,10,5,0,9,2,12,0.00,0,Fog,78
2013-2-7,64,56,47,48,45,37,83,70,56,30.09,29.99,29.93,10,10,10,14,6,17,0.00,6,,127
2013-2-8,53,45,37,48,42,29,93,75,56,30.30,30.09,29.93,10,7,1,16,7,22,0.27,6,Rain,6
2013-2-9,57,45,33,38,31,28,82,62,41,30.35,30.26,30.16,10,10,7,13,5,17,0.00,2,,75
2013-2-10,62,55,47,58,48,35,90,75,59,30.15,29.98,29.86,10,8,1,18,9,26,0.91,6,Rain-Thunderstorm,147
2013-2-11,61,53,45,57,44,34,87,67,46,30.18,30.09,29.97,10,10,9,14,4,18,T,3,,269
2013-2-12,52,48,44,40,36,31,83,64,44,30.17,30.01,29.78,10,10,8,14,6,20,0.04,5,Rain,90
2013-2-13,47,43,39,43,39,33,92,79,65,30.06,29.86,29.73,10,7,2,20,8,26,0.03,8,Rain,287
2013-2-14,62,46,30,38,32,27,92,62,32,30.11,30.06,30.02,10,5,0,15,5,20,0.00,0,Fog,219
2013-2-15,57,46,34,38,32,24,92,66,40,30.16,30.12,30.07,10,9,2,15,5,21,0.00,4,,333
2013-2-16,44,35,25,23,16,11,63,45,27,30.27,30.19,30.15,10,10,10,22,8,30,0.00,3,,331
2013-2-17,51,36,21,22,17,12,75,49,22,30.33,30.26,30.20,10,10,10,9,3,13,0.00,3,,179
2013-2-18,63,50,37,46,33,21,77,56,34,30.24,30.09,29.90,10,9,4,28,14,45,0.27,4,Rain,181
2013-2-19,52,42,31,46,32,17,86,56,26,30.27,30.10,29.93,10,10,5,25,11,30,0.04,3,Rain,286
2013-2-20,39,35,30,25,18,15,78,61,44,30.34,30.27,30.22,10,10,10,13,5,16,T,3,,37
2013-2-21,54,44,34,48,33,18,86,59,32,30.21,30.00,29.86,10,8,2,20,10,24,0.81,7,Rain-Thunderstorm,92
2013-2-22,62,55,48,49,47,46,93,80,67,30.09,30.00,29.90,10,6,0,17,4,24,0.00,6,Fog,140
2013-2-23,57,49,40,46,36,29,83,65,46,30.01,29.98,29.91,10,10,7,12,5,14,0.00,2,,333
2013-2-24,59,47,34,31,28,27,70,51,31,30.12,30.04,29.95,10,10,8,10,5,13,0.00,0,,60
2013-2-25,62,52,41,46,36,26,77,59,41,29.96,29.78,29.47,10,10,9,28,12,36,0.05,6,Rain,104
2013-2-26,53,47,41,48,40,33,89,75,60,29.81,29.57,29.41,10,9,2,25,14,33,0.30,8,Rain,223
2013-2-27,55,48,41,34,32,30,70,58,46,29.96,29.89,29.84,10,10,10,21,11,25,T,7,,269
2013-2-28,44,40,36,32,27,24,67,59,51,30.10,30.03,29.93,10,10,10,20,10,25,0.00,8,,305